Weather in Strizhi

Russia / Kirov Oblast     58°27′59″N   49°15′28″E
temp.,
°C
wind,
m/s
gust,
m/s
humid.,
%
clouds,
%
prec.,
mm/h
press.,
hPa
HPBL,
m
21 april, wed
wed2100:000se377714 0.0 1029109
03:000ese4117399 0.0 1029198
06:00+1se5146796 0.0 1027378
09:00+6se71552100 0.0 1026972
12:00+9sse81548100 0.0 10241252
15:00+6sse71655100 0.3 10231142
18:00+2sse81889100 1.2 10221013
21:00+2sse71696100 3.9 1021878
22 april, thu
thu2200:00+2sse71594100 0.9 1019794
03:00+2sse71596100 1.1 1018707
06:00+3s71594100 0.2 1018748
09:00+5ssw61290100 0.3 1020867
12:00+8ssw5107065 0.1 10211353
15:00+8sse61077100 0.1 10211052
18:00+8s81585100 1.3 10201091
21:00+7ssw5109124 2.2 1022453
23 april, fri
fri2300:00+5ssw369721 0.2 1023151
03:00+3ssw229610 0.2 102437
06:00+5sse26945 0.0 1024175
09:00+9s347545 0.0 1025795
12:00+10sse447094 0.1 1025939
15:00+9sse447182 0.1 1025752
18:00+8se368215 0.0 1025339
21:00+6se4988100 0.0 1024255
24 april, sat
sat2400:00+5se389199 0.0 1023242
03:00+5ese369392 0.0 1022195
06:00+5ese4988100 0.0 1022418
09:00+8e577062 0.0 1019922
12:00+10e5665100 0.0 10171188
15:00+9ese4778100 0.0 1015776
18:00+7e4885100 0.0 1014583
21:00+6ese4794100 0.1 1012414
25 april, sun
sun2500:00+6ese3796100 0.3 1010430
03:00+6se4896100 0.3 1008418
06:00+6ese5109284 0.0 1006520
09:00+6sse5887100 0.4 10041099
12:00+4sw5992100 3.9 1006837
15:00+9wsw7105881 4.4 10071625
18:00+7sw5106570 0.4 1008657
21:00+3ssw39865 0.6 1009191